Probability
23 16 16 13 10 6 6 10 10 10 6 6 6 6 6 6 3 3 3 0 0 6 0 0 0 0 0 0 0 0 0 0 0 0 10 13 19 19
19 16 19 16 13 10 6 10 10 10 6 6 6 6 3 3 3 3 3 0 0 0 0 0 0 0 0 0 0 0 0 0 0 0 0 3 6 3
19 16 19 13 13 13 10 10 10 10 10 10 6 6 3 3 3 0 3 0 0 0 0 0 0 0 0 0 0 0 0 0 0 0 3 3 3 0
19 19 13 13 13 13 13 13 13 10 10 6 6 6 6 6 3 0 0 3 0 0 0 0 0 0 0 0 0 0 0 0 0 0 0 0 0 0
29 26 16 13 16 13 16 16 13 13 10 10 10 3 3 6 6 0 3 3 3 3 0 0 0 0 0 0 0 0 0 0 0 0 0 0 0 0
35 23 23 16 16 16 16 13 13 13 13 10 10 6 6 6 3 3 3 3 6 6 3 0 0 0 0 0 0 0 0 0 0 0 0 0 0 0
29 29 26 19 13 16 16 10 10 10 10 10 6 6 6 6 3 3 3 3 3 0 0 0 0 0 0 0 0 0 0 0 0 0 0 0 0 0
19 19 26 29 16 16 16 10 10 10 10 10 6 6 6 3 3 6 3 3 3 0 0 0 0 0 0 0 0 0 0 0 0 0 0 0 0 0
23 19 26 26 23 16 10 10 10 6 6 13 13 6 6 3 3 3 3 3 3 0 0 0 0 0 0 0 0 0 0 0 0 0 0 0 0 0
26 16 13 16 19 16 16 13 10 10 10 10 10 13 6 6 3 3 3 3 0 0 0 0 0 0 0 0 0 0 0 0 0 0 0 0 0 0
23 19 13 13 10 3 6 13 13 10 10 10 10 10 3 3 3 3 3 6 6 3 0 0 0 0 0 0 0 0 0 0 0 0 0 0 0 0
16 16 13 10 10 3 3 6 6 10 10 6 6 3 3 3 0 3 3 3 6 0 0 0 0 0 0 0 0 0 0 0 0 0 0 0 0 0
6 6 10 10 0 0 0 3 10 6 3 3 3 6 6 6 6 3 3 3 6 6 0 0 0 0 0 0 0 0 0 0 0 0 0 0 0 0
6 6 6 6 0 0 0 0 0 0 3 0 3 3 6 10 10 6 6 3 3 6 0 0 0 0 0 0 0 0 0 0 0 0 0 0 0 0
6 6 6 3 0 0 0 0 0 0 0 0 0 0 3 6 6 6 0 3 3 0 0 0 0 0 0 0 0 0 0 0 0 0 0 0 0 0
3 3 0 0 0 0 0 0 0 0 0 0 0 0 0 3 3 3 3 3 3 3 3 0 0 0 0 0 0 0 0 0 0 0 0 0 0 0
3 3 3 3 3 3 3 3 3 0 0 0 3 0 0 3 3 3 3 0 0 3 6 0 0 0 0 0 0 0 0 0 0 0 0 0 0 0
0 0 0 3 3 3 3 3 3 3 3 3 3 0 0 3 3 3 3 3 3 0 0 0 0 0 0 0 0 0 0 0 0 0 0 0 0 0
0 0 0 0 0 0 3 3 3 3 3 3 3 3 3 3 3 0 0 0 0 0 0 0 0 0 0 0 0 0 0 0 0 0 0 0 0 0
0 0 0 0 0 0 0 3 3 3 3 3 3 3 3 3 3 0 0 0 0 0 0 0 0 0 0 0 0 0 0 0 0 0 0 0 0 0
0 0 0 0 0 0 0 3 3 3 3 3 3 3 3 3 3 0 0 0 0 0 0 0 0 0 0 0 0 0 0 0 0 0 0 0 0 0
0 0 0 3 3 3 0 0 3 3 3 3 3 3 3 3 3 0 0 0 0 0 0 0 0 0 0 0 0 0 0 0 0 0 0 0 0 0
0 0 3 3 3 3 3 3 3 3 3 3 3 3 3 3 3 0 0 0 0 0 0 0 0 0 0 0 0 0 0 0 0 0 0 0 0 0
Height
5870 5869 5868 5867 5865 5864 5863 5863 5862 5861 5861 5859 5857 5856 5855 5854 5853 5852 5851 5850 5848 5847 5846 5845 5844 5844 5843 5842 5841 5840 5839 5838 5837 5836 5836 5835 5834 5833
5865 5864 5863 5862 5861 5860 5858 5857 5856 5856 5855 5853 5852 5850 5849 5848 5847 5847 5846 5845 5844 5843 5841 5840 5840 5839 5838 5837 5836 5834 5833 5832 5831 5831 5830 5829 5828 5828
5861 5859 5858 5857 5856 5855 5853 5852 5851 5850 5849 5848 5847 5845 5844 5843 5842 5841 5840 5839 5838 5837 5836 5835 5834 5833 5832 5831 5830 5829 5828 5826 5826 5825 5824 5823 5823 5822
5855 5854 5853 5851 5851 5849 5848 5847 5846 5845 5844 5842 5841 5840 5838 5837 5836 5835 5834 5833 5832 5831 5830 5829 5828 5827 5826 5825 5824 5823 5821 5820 5819 5818 5818 5817 5817 5816
5850 5848 5846 5845 5844 5843 5842 5841 5840 5839 5838 5836 5835 5834 5833 5831 5830 5829 5828 5827 5826 5825 5824 5823 5822 5821 5820 5819 5818 5816 5815 5814 5813 5812 5811 5810 5810 5809
5843 5842 5841 5840 5838 5837 5836 5835 5833 5832 5831 5830 5828 5827 5826 5825 5823 5822 5821 5820 5819 5818 5817 5816 5815 5814 5813 5812 5811 5810 5808 5807 5806 5805 5804 5803 5803 5802
5836 5835 5834 5833 5832 5830 5829 5828 5827 5826 5824 5823 5822 5820 5819 5818 5817 5815 5814 5812 5811 5810 5809 5808 5808 5807 5805 5804 5803 5802 5801 5800 5799 5798 5797 5796 5795 5794
5829 5828 5827 5826 5825 5824 5823 5821 5820 5819 5817 5816 5815 5813 5812 5810 5809 5807 5806 5804 5804 5803 5801 5800 5799 5798 5797 5796 5795 5794 5793 5792 5791 5790 5789 5787 5786 5785
5821 5820 5819 5818 5818 5817 5815 5814 5813 5811 5810 5809 5807 5806 5805 5803 5801 5800 5798 5797 5795 5794 5793 5792 5791 5790 5789 5787 5787 5786 5785 5784 5783 5782 5780 5779 5778 5777
5814 5813 5812 5811 5810 5809 5808 5806 5805 5803 5802 5801 5799 5798 5796 5794 5793 5792 5790 5789 5787 5786 5784 5784 5783 5781 5780 5779 5778 5777 5777 5776 5775 5773 5772 5770 5769 5768
5806 5805 5804 5803 5802 5801 5800 5798 5797 5796 5794 5792 5791 5789 5787 5786 5784 5783 5782 5780 5779 5777 5775 5775 5774 5773 5771 5770 5770 5769 5768 5767 5766 5765 5763 5762 5761 5760
5798 5797 5796 5795 5793 5792 5791 5790 5789 5787 5785 5784 5782 5780 5778 5777 5775 5774 5773 5771 5770 5769 5767 5766 5765 5764 5764 5763 5761 5760 5759 5758 5757 5756 5755 5754 5753 5752
5789 5788 5786 5785 5784 5782 5781 5780 5779 5778 5776 5775 5773 5771 5770 5768 5767 5765 5764 5762 5761 5760 5759 5757 5757 5756 5755 5754 5753 5752 5751 5750 5749 5748 5746 5745 5744 5743
5780 5778 5777 5775 5774 5773 5772 5771 5770 5769 5767 5766 5764 5763 5761 5759 5758 5756 5754 5752 5751 5751 5750 5749 5748 5748 5747 5745 5745 5743 5742 5741 5740 5739 5738 5737 5735 5734
5770 5769 5768 5766 5765 5764 5763 5762 5760 5759 5758 5756 5755 5754 5752 5751 5749 5747 5746 5744 5742 5742 5742 5741 5740 5739 5738 5737 5736 5735 5734 5732 5731 5730 5729 5728 5727 5725
5761 5760 5758 5757 5756 5755 5754 5752 5751 5749 5748 5747 5746 5745 5743 5741 5740 5739 5738 5736 5735 5734 5733 5732 5731 5731 5730 5729 5728 5726 5725 5724 5723 5721 5720 5719 5719 5718
5752 5751 5750 5748 5747 5746 5744 5743 5741 5740 5739 5737 5736 5735 5734 5733 5732 5731 5730 5728 5727 5727 5726 5724 5723 5722 5721 5720 5719 5718 5717 5716 5715 5714 5713 5712 5711 5710
5744 5742 5741 5739 5738 5737 5735 5733 5732 5731 5730 5729 5727 5726 5725 5724 5723 5722 5721 5720 5719 5719 5718 5716 5715 5714 5713 5712 5711 5710 5708 5708 5707 5706 5705 5704 5703 5702
5735 5733 5732 5731 5729 5728 5726 5725 5724 5722 5721 5720 5718 5718 5716 5715 5714 5714 5713 5712 5711 5710 5709 5708 5707 5706 5704 5704 5703 5701 5700 5699 5699 5698 5697 5696 5696 5695
5727 5725 5724 5722 5721 5719 5717 5716 5715 5713 5712 5711 5710 5709 5708 5707 5706 5705 5705 5704 5703 5702 5701 5700 5699 5697 5696 5695 5694 5693 5692 5691 5690 5690 5689 5688 5688 5687
5719 5717 5715 5714 5712 5710 5709 5707 5706 5705 5704 5703 5702 5701 5700 5699 5698 5697 5696 5695 5694 5693 5692 5692 5690 5689 5687 5687 5686 5685 5685 5684 5683 5682 5681 5681 5680 5679
5711 5709 5707 5706 5704 5702 5701 5699 5698 5697 5696 5694 5693 5692 5691 5690 5690 5689 5688 5687 5686 5685 5684 5683 5682 5680 5679 5678 5678 5677 5677 5676 5675 5674 5674 5673 5673 5672
5703 5701 5699 5698 5696 5695 5693 5691 5690 5688 5687 5686 5685 5684 5683 5682 5681 5680 5679 5678 5677 5676 5675 5674 5673 5672 5671 5670 5670 5669 5669 5668 5668 5667 5666 5665 5665 5665
Wind_Speed
13 14 15 16 16 17 17 18 18 18 18 19 19 19 19 18 17 17 17 17 17 17 17 17 17 17 17 18 19 18 18 18 18 19 19 19 20 20
15 15 16 16 16 17 17 17 18 17 17 18 18 19 18 18 18 18 18 19 18 18 18 18 19 19 20 19 19 20 19 20 19 20 20 21 21 21
16 17 17 16 17 17 18 17 18 18 17 17 18 18 18 19 18 18 18 19 19 19 20 20 20 19 20 20 20 21 21 21 21 21 21 21 21 21
17 17 18 18 18 18 18 18 19 19 19 19 19 20 20 20 21 20 20 20 21 21 20 20 20 20 21 21 22 22 22 22 22 21 21 22 22 22
19 19 19 20 19 19 19 19 20 20 20 20 20 21 21 21 21 22 22 22 22 22 22 22 22 23 23 23 23 22 22 22 22 22 22 22 23 23
21 21 21 20 20 20 20 20 20 20 21 21 21 22 22 22 22 22 23 23 23 24 24 24 25 25 24 24 24 24 24 24 24 24 24 24 25 25
23 23 23 22 22 21 21 21 22 22 22 22 21 22 23 23 23 24 25 25 25 25 25 25 26 26 26 25 25 25 25 25 25 26 26 27 27 27
25 24 24 24 23 22 22 22 24 24 23 23 22 22 23 24 25 26 27 26 26 27 27 27 27 27 26 27 27 26 26 26 26 26 26 27 27 27
25 24 24 24 24 24 24 24 24 24 25 25 25 24 25 26 26 26 27 27 27 28 28 28 28 27 27 27 27 27 27 27 27 27 28 28 28 27
25 25 25 24 25 25 25 25 26 26 26 26 26 27 27 27 27 27 27 27 28 29 29 28 29 28 28 27 28 28 28 27 27 27 27 27 27 27
27 26 26 26 26 27 27 27 27 28 28 28 28 28 28 28 28 28 29 29 29 30 30 29 28 28 27 27 27 27 27 27 26 26 27 27 27 27
28 28 28 28 28 29 29 29 28 28 29 29 29 29 29 28 28 29 30 30 30 29 29 29 28 28 27 26 27 27 27 28 27 27 27 27 27 27
29 29 29 29 29 29 30 29 29 29 29 30 30 30 29 29 29 29 30 30 30 29 29 29 29 28 27 27 27 27 27 27 27 27 27 27 27 27
29 29 29 29 30 30 30 29 30 30 30 30 30 29 29 29 29 29 28 28 28 28 28 28 28 28 27 27 26 27 27 27 27 27 27 26 26 26
29 30 30 30 30 30 30 30 30 30 30 30 30 29 29 29 28 27 28 27 27 27 28 28 27 27 27 27 27 27 28 27 26 25 26 25 24 24
29 29 29 30 30 31 31 30 30 30 30 30 29 29 28 28 27 27 27 27 26 26 27 27 27 27 27 28 28 28 28 27 26 26 26 25 24 24
29 29 29 29 29 29 30 30 30 29 29 28 28 29 28 28 28 28 27 27 27 27 27 27 27 27 28 28 28 28 27 26 26 26 25 25 25 24
30 30 29 29 29 29 29 29 29 29 28 27 27 28 28 28 28 27 27 27 27 27 26 27 26 27 27 27 27 27 26 26 26 26 25 24 24 24
29 29 29 29 29 29 29 29 28 28 28 27 27 27 28 27 26 26 27 27 26 26 26 26 26 27 27 26 27 27 26 26 26 25 25 25 24 24
28 28 28 28 28 28 28 29 28 27 27 27 26 26 26 25 25 25 25 26 26 27 27 26 27 27 27 26 25 25 25 25 24 24 24 24 24 23
27 27 27 27 27 27 27 27 26 26 26 25 25 26 25 25 25 25 25 26 26 26 26 27 26 26 25 24 24 24 24 25 25 24 24 24 23 23
26 26 26 26 25 25 25 24 24 25 25 25 25 25 25 25 25 26 26 26 27 27 26 25 25 24 24 23 24 24 24 24 24 24 24 24 24 23
25 25 24 24 24 23 24 24 24 25 25 25 24 25 25 26 26 26 27 27 27 27 26 25 25 24 24 24 23 23 24 24 24 24 24 24 24 24
Wind_Direction
286 285 283 281 279 279 280 280 279 279 280 279 280 281 282 281 281 280 281 282 282 283 283 283 282 279 278 278 277 277 276 276 276 276 277 276 274 274
287 286 286 283 282 283 284 284 284 283 283 283 281 279 277 279 279 281 280 282 282 282 282 283 280 281 279 279 280 277 276 275 276 277 277 276 275 275
285 285 284 285 287 286 286 285 284 283 281 283 283 281 282 281 281 281 281 282 279 279 280 280 281 281 282 282 281 280 279 277 276 277 277 276 275 275
283 283 282 282 286 287 287 286 284 283 282 282 282 281 284 283 281 279 281 283 281 279 280 281 281 282 282 281 281 281 280 279 277 275 275 275 276 276
279 281 281 281 283 286 285 284 283 283 283 282 283 281 283 283 283 280 280 281 281 280 279 280 280 281 281 282 282 282 282 280 278 276 276 276 277 278
278 279 279 281 282 282 281 282 283 284 285 284 284 283 283 283 284 281 281 280 281 279 278 277 278 279 279 281 283 282 281 280 278 277 276 277 278 278
279 278 277 279 279 280 282 282 283 285 285 285 284 283 282 282 283 282 282 280 281 282 280 279 279 279 279 280 281 281 281 281 279 278 277 278 278 277
280 280 278 278 278 280 283 285 285 284 283 283 285 284 284 284 284 283 282 280 280 281 280 279 280 280 280 279 279 279 280 280 281 279 278 279 279 278
279 278 277 277 279 280 282 285 287 286 284 285 286 285 284 283 284 283 283 280 280 280 279 279 279 279 279 277 277 278 279 279 280 280 278 278 278 277
279 278 278 279 279 280 281 282 284 285 287 287 285 284 283 283 283 283 281 280 280 280 279 279 279 279 278 277 278 277 278 279 279 280 280 279 278 278
281 280 279 279 280 280 280 281 282 283 286 286 285 283 282 282 282 281 281 280 280 279 279 278 278 281 279 276 276 277 277 278 279 279 280 280 279 278
281 281 279 279 280 280 280 280 281 283 285 286 286 284 283 282 281 281 281 280 280 279 277 277 277 279 279 278 277 277 276 276 277 278 279 279 279 278
281 281 280 278 277 278 280 281 281 282 284 286 285 284 284 283 282 281 282 281 280 278 276 276 276 277 277 278 277 277 276 276 278 280 279 279 279 278
281 281 280 279 278 278 279 280 281 281 282 284 284 283 282 282 281 281 279 279 277 277 276 275 276 276 278 279 278 277 277 278 280 281 280 280 280 278
281 281 281 280 280 279 280 280 280 280 281 281 281 280 280 280 280 281 279 277 277 277 277 277 277 276 277 278 279 278 277 277 279 280 279 280 281 280
282 282 282 281 280 281 280 281 281 281 282 281 280 279 279 278 278 280 278 277 279 279 278 278 277 277 278 278 277 277 278 277 277 277 277 277 279 278
284 285 285 283 282 284 283 282 282 282 281 281 281 279 278 278 277 277 277 279 280 279 278 278 279 279 279 278 277 277 276 275 275 275 278 278 278 277
288 288 286 284 283 282 283 282 281 279 281 281 280 280 278 278 278 276 276 277 277 276 277 277 278 279 278 278 277 276 275 274 274 275 275 275 277 278
287 287 285 285 285 284 283 284 282 281 281 281 280 280 281 280 277 277 276 276 275 275 276 277 278 280 279 279 277 275 274 274 274 274 274 275 276 277
287 287 287 286 286 286 285 284 283 282 281 281 281 281 281 280 278 277 277 278 277 276 275 275 278 279 278 278 277 275 274 274 274 275 275 275 274 275
287 287 287 286 286 286 286 285 284 283 281 280 280 281 280 279 278 277 277 278 279 279 277 276 277 278 276 275 276 274 273 273 272 273 274 274 273 273
286 287 287 286 286 287 287 286 285 285 282 280 279 279 280 279 279 278 278 279 278 278 278 277 276 277 276 275 275 274 272 272 273 274 274 274 273 272
288 288 288 287 286 288 288 287 287 286 284 282 282 282 283 282 280 279 278 278 278 277 276 275 275 276 277 275 274 273 272 272 273 274 275 275 273 270